Location: Newark
(39.6867°N, 100.6772°W)
Time: 00:43:14
(UTC+00:00)

ISS - Pass Details

Date: 21 September 2019
Orbit: 411 x 421 km, 51.6° (Epoch: 13 October)

Event Time Altitude Azimuth Distance (km) Brightness Sun altitude
Rises 01:30:12 0° 224° (SW) 2,329 0.5 -9.8°
Reaches altitude 10° 01:32:17 10° 221° (SW) 1,471 -0.6 -10.2°
Maximum altitude 01:35:33 63° 140° (SE) 460 -3.8 -10.8°
Enters shadow 01:38:38 11° 58° (ENE) 1,396 -1.5 -11.4°
